CW6344 Weather Reports


time (UTC)temp
C
wind
direction
speed
KPH
gust
KPH
rain 1hr
cm
rain 24hr
cm
rain mn
cm
humidity
%
barometer
mb
20260508130454 13 280 0.0 4.8 0.00 0.08 0.03 64 1016.0
20260508125454 12 256 0.0 4.8 0.00 0.08 0.03 67 1015.9
20260508124624 12 256 0.0 3.2 0.00 0.08 0.03 67 1015.8
20260508123454 12 296 0.0 1.6 0.00 0.08 0.03 71 1015.7
20260508122454 12 295 0.0 1.6 0.00 0.08 0.03 71 1015.6
20260508121454 11 33 0.0 0.0 0.00 0.08 0.03 77 1015.5
20260508120524 11 306 1.6 4.8 0.00 0.08 0.03 77 1015.5
20260508115454 11 256 0.0 3.2 0.00 0.08 0.03 81 1015.4
20260508114524 10 151 0.0 0.0 0.00 0.08 0.03 84 1015.4
20260508113454 9 138 0.0 0.0 0.00 0.08 0.03 88 1015.2
20260508112524 8 138 0.0 0.0 0.00 0.08 0.03 89 1015.1
20260508110454 8 138 0.0 0.0 0.03 0.08 0.03 90 1014.9
20260508105454 7 173 0.0 0.0 0.03 0.10 0.03 90 1014.8
20260508104454 7 173 0.0 0.0 0.03 0.10 0.03 91 1014.6
20260508102454 7 325 0.0 0.0 0.03 0.10 0.03 91 1014.3
20260508101454 7 325 0.0 0.0 0.03 0.10 0.03 91 1014.3
20260508100454 7 325 0.0 0.0 0.00 0.08 0.00 91 1014.3
20260508095454 7 325 0.0 0.0 0.00 0.08 0.00 91 1014.0
20260508094454 7 325 0.0 0.0 0.00 0.08 0.00 91 1014.0
20260508093454 7 306 0.0 0.0 0.00 0.08 0.00 91 1013.9
20260508092454 7 306 0.0 0.0 0.00 0.08 0.00 91 1013.9
20260508091454 8 306 0.0 0.0 0.00 0.08 0.00 92 1013.8
20260508090454 8 306 0.0 0.0 0.00 0.08 0.00 92 1013.7
20260508084524 8 255 0.0 0.0 0.00 0.08 0.00 92 1013.5
20260508083454 8 257 0.0 0.0 0.00 0.08 0.00 92 1013.2
20260508082454 8 254 0.0 0.0 0.00 0.08 0.00 92 1013.1
20260508080454 8 254 0.0 0.0 0.00 0.08 0.00 92 1013.0
20260508075454 8 256 0.0 0.0 0.00 0.08 0.00 92 1012.9
20260508074454 8 229 0.0 1.6 0.00 0.08 0.00 92 1012.8
20260508073454 9 217 0.0 0.0 0.00 0.08 0.00 92 1012.7
20260508072524 8 217 0.0 0.0 0.00 0.08 0.00 92 1012.7
20260508070454 8 278 0.0 0.0 0.00 0.08 0.00 92 1012.4
20260508065524 8 278 0.0 0.0 0.00 0.08 0.00 92 1012.3
20260508064454 8 278 0.0 0.0 0.00 0.08 0.00 92 1012.2
20260508062454 8 278 0.0 0.0 0.00 0.08 0.00 92 1012.0
20260508061454 9 278 0.0 0.0 0.00 0.08 0.00 91 1011.9
20260508060524 9 278 0.0 0.0 0.00 0.08 0.00 91 1012.0
20260508055454 9 278 0.0 0.0 0.00 0.08 0.00 92 1011.8
20260508054454 10 278 0.0 0.0 0.00 0.08 0.00 91 1011.9
20260508053454 9 278 0.0 0.0 0.00 0.08 0.00 91 1011.8
20260508052524 10 278 0.0 0.0 0.00 0.13 0.00 91 1011.8
20260508051454 10 278 0.0 0.0 0.00 0.18 0.00 91 1011.8
20260508050454 10 278 0.0 0.0 0.00 0.18 0.00 91 1011.8
20260508045454 10 278 0.0 0.0 0.00 0.18 0.00 91 1011.8
20260508044454 10 278 0.0 0.0 0.00 0.18 0.00 91 1011.8
20260508043454 10 279 0.0 0.0 0.00 0.18 0.00 91 1011.8
20260508042454 10 279 0.0 0.0 0.00 0.18 0.00 90 1011.7
20260508041454 9 279 0.0 0.0 0.00 0.18 0.00 90 1011.7
20260508040454 9 279 0.0 0.0 0.00 0.18 0.18 90 1011.6
20260508035454 9 279 1.6 1.6 0.00 0.18 0.18 90 1011.6
20260508034454 9 200 0.0 0.0 0.00 0.18 0.18 90 1011.4
20260508033454 9 181 0.0 0.0 0.00 0.18 0.18 89 1011.3
20260508032454 9 181 0.0 0.0 0.00 0.18 0.18 89 1011.3
20260508031454 8 181 0.0 0.0 0.00 0.18 0.18 89 1011.3
20260508030454 8 179 0.0 0.0 0.00 0.18 0.18 89 1011.2
20260508025454 8 176 0.0 0.0 0.00 0.18 0.18 89 1011.2
20260508024454 8 176 0.0 0.0 0.00 0.18 0.18 88 1011.3
20260508023455 8 176 0.0 0.0 0.00 0.18 0.18 88 1011.2
20260508022455 8 176 0.0 0.0 0.00 0.18 0.18 88 1011.2
20260508021455 8 176 0.0 0.0 0.00 0.18 0.18 88 1011.2
20260508020455 8 176 0.0 0.0 0.00 0.18 0.18 87 1011.2
20260508015454 9 176 0.0 0.0 0.00 0.18 0.18 87 1011.1
20260508014454 9 176 0.0 0.0 0.00 0.18 0.18 87 1011.0
20260508013454 9 175 0.0 0.0 0.00 0.18 0.18 86 1011.0
20260508012455 9 175 0.0 0.0 0.00 0.18 0.18 86 1011.0
20260508011454 9 175 0.0 0.0 0.00 0.18 0.18 86 1010.8
20260508010455 10 175 0.0 0.0 0.00 0.18 0.18 85 1010.7
20260508004455 10 175 0.0 0.0 0.00 0.18 0.18 85 1010.5
20260508003455 10 175 0.0 0.0 0.00 0.18 0.18 86 1010.3
20260508002455 10 175 0.0 0.0 0.00 0.18 0.18 85 1010.3
20260508000457 11 175 0.0 0.0 0.00 0.18 0.18 86 1010.2
20260507235455 11 175 0.0 0.0 0.00 0.18 0.18 85 1009.9
20260507234455 11 175 0.0 0.0 0.00 0.18 0.18 84 1009.7
20260507233455 11 175 0.0 0.0 0.00 0.18 0.18 84 1009.7
20260507232455 12 175 0.0 0.0 0.00 0.18 0.18 83 1009.7
20260507231455 12 175 0.0 0.0 0.00 0.18 0.18 82 1009.5
20260507230455 12 176 0.0 0.0 0.00 0.18 0.18 81 1009.4
20260507224455 12 225 0.0 0.0 0.00 0.18 0.18 80 1009.4
20260507223455 12 147 0.0 1.6 0.00 0.18 0.18 77 1009.5
20260507222455 12 232 1.6 1.6 0.00 0.18 0.18 81 1009.4
20260507221455 12 279 0.0 0.0 0.00 0.18 0.18 79 1009.5
20260507220525 12 279 0.0 0.0 0.00 0.18 0.18 77 1009.5
20260507215455 12 327 0.0 0.0 0.00 0.18 0.18 79 1009.8
20260507214455 12 312 0.0 1.6 0.00 0.18 0.18 80 1009.9
20260507213455 12 238 0.0 3.2 0.00 0.18 0.18 82 1009.8
20260507212455 12 324 0.0 0.0 0.00 0.18 0.18 84 1009.7
20260507211455 11 260 0.0 0.0 0.00 0.18 0.18 84 1009.9
20260507210455 11 126 0.0 0.0 0.00 0.18 0.18 86 1009.8
20260507205455 12 99 0.0 0.0 0.03 0.18 0.18 85 1009.7
20260507204455 12 99 0.0 0.0 0.03 0.18 0.18 84 1009.5
20260507203455 11 48 0.0 0.0 0.05 0.18 0.18 85 1009.7
20260507202625 11 273 0.0 0.0 0.05 0.18 0.18 83 1010.4
20260507201455 12 272 0.0 0.0 0.05 0.18 0.18 81 1009.9
20260507200455 12 273 0.0 0.0 0.05 0.18 0.18 85 1009.5
20260507195455 12 272 0.0 0.0 0.03 0.15 0.15 81 1010.0
20260507194455 12 273 0.0 0.0 0.03 0.15 0.15 81 1010.0
20260507193455 12 272 0.0 0.0 0.00 0.13 0.13 78 1010.0
20260507192455 12 272 0.0 0.0 0.00 0.13 0.13 75 1010.4
20260507191455 12 272 0.0 0.0 0.00 0.13 0.13 74 1010.2
20260507190455 12 272 0.0 0.0 0.00 0.13 0.13 71 1010.1
20260507185455 13 272 0.0 0.0 0.00 0.13 0.13 64 1010.3
20260507184525 13 272 0.0 1.6 0.00 0.13 0.13 61 1010.3
20260507183455 13 325 0.0 3.2 0.00 0.13 0.13 64 1010.3
20260507182555 13 324 0.0 1.6 0.00 0.13 0.13 67 1010.4
20260507181455 13 274 0.0 0.0 0.00 0.13 0.13 63 1010.5
20260507180525 13 274 0.0 0.0 0.00 0.13 0.13 61 1010.8
20260507175455 13 298 0.0 0.0 0.00 0.13 0.13 68 1010.6
20260507174455 13 285 0.0 0.0 0.00 0.13 0.13 68 1010.9
20260507173455 13 284 0.0 0.0 0.00 0.13 0.13 67 1011.1
20260507172455 13 284 0.0 0.0 0.00 0.13 0.13 64 1011.4
20260507171455 13 279 0.0 0.0 0.00 0.13 0.13 62 1011.2
20260507170455 13 311 0.0 0.0 0.00 0.13 0.13 60 1011.1
20260507165455 14 287 0.0 0.0 0.00 0.13 0.13 58 1011.4
20260507164455 14 271 3.2 3.2 0.00 0.13 0.13 54 1011.2
20260507163455 14 328 0.0 0.0 0.00 0.13 0.13 58 1011.5
20260507162455 14 319 0.0 3.2 0.00 0.15 0.13 59 1011.6
20260507161455 14 289 0.0 0.0 0.00 0.15 0.13 59 1011.6
20260507160455 14 344 0.0 1.6 0.00 0.18 0.13 56 1011.9
20260507155455 14 192 0.0 1.6 0.00 0.23 0.13 62 1011.7
20260507154525 13 334 0.0 0.0 0.00 0.30 0.13 63 1011.7
20260507153455 13 319 0.0 0.0 0.00 0.30 0.13 60 1011.8
20260507152455 13 319 0.0 1.6 0.00 0.33 0.13 55 1012.0
20260507151455 14 282 0.0 1.6 0.00 0.33 0.13 58 1011.8
20260507150455 13 44 1.6 1.6 0.00 0.36 0.13 63 1011.9
20260507145455 13 360 0.0 1.6 0.00 0.36 0.13 55 1012.1
20260507144525 13 63 0.0 1.6 0.00 0.36 0.13 58 1012.0
20260507143455 14 311 3.2 4.8 0.00 0.36 0.13 58 1012.2
20260507142455 14 294 1.6 1.6 0.00 0.38 0.13 65 1012.2
20260507141455 14 51 0.0 1.6 0.00 0.38 0.13 65 1012.2
20260507140455 14 142 0.0 3.2 0.00 0.38 0.13 67 1012.0
20260507134455 14 342 0.0 1.6 0.00 0.38 0.13 74 1011.8
20260507133455 14 241 0.0 6.4 0.00 0.38 0.13 76 1012.0
20260507132455 14 295 0.0 0.0 0.00 0.38 0.13 79 1012.1
20260507131455 14 344 0.0 1.6 0.00 0.38 0.13 79 1012.0